Time,TemperatureF,DewpointF,PressureIn,WindDirection,WindDirectionDegrees,WindSpeedMPH,WindSpeedGustMPH,Humidity,HourlyPrecipIn,Conditions,Clouds,dailyrainin,SoftwareType,DateUTC
2017-07-20 00:01:00,78.6,78.6,30.03,SW,215,0.0,3.0,0,0.00,,,0.00,meteobridge,2017-07-20 04:01:00,
2017-07-20 00:06:00,78.4,78.4,30.03,SW,214,0.0,1.0,0,0.00,,,0.00,meteobridge,2017-07-20 04:06:00,
2017-07-20 00:11:00,77.9,77.9,30.04,SW,214,0.0,1.0,0,0.00,,,0.00,meteobridge,2017-07-20 04:11:00,
2017-07-20 00:16:00,77.5,77.5,30.04,SW,214,0.0,1.0,0,0.00,,,0.00,meteobridge,2017-07-20 04:16:00,
2017-07-20 00:21:00,77.4,77.4,30.04,SW,214,0.0,1.0,0,0.00,,,0.00,meteobridge,2017-07-20 04:21:00,
2017-07-20 00:26:00,77.0,77.0,30.04,SW,214,0.9,2.0,0,0.00,,,0.00,meteobridge,2017-07-20 04:26:00,
2017-07-20 00:31:00,77.2,77.2,30.04,SW,215,0.0,1.0,0,0.00,,,0.00,meteobridge,2017-07-20 04:31:00,
2017-07-20 00:36:00,77.4,77.4,30.04,SW,215,0.0,1.0,0,0.00,,,0.00,meteobridge,2017-07-20 04:36:00,
2017-07-20 00:41:00,77.4,77.4,30.05,SW,215,0.0,0.0,0,0.00,,,0.00,meteobridge,2017-07-20 04:41:00,
2017-07-20 00:46:00,77.2,77.2,30.05,SW,215,0.9,1.0,0,0.00,,,0.00,meteobridge,2017-07-20 04:46:00,
2017-07-20 00:51:00,77.2,77.2,30.05,SW,215,0.0,0.0,0,0.00,,,0.00,meteobridge,2017-07-20 04:51:00,
2017-07-20 00:56:00,77.4,77.4,30.05,SW,215,0.0,0.0,0,0.00,,,0.00,meteobridge,2017-07-20 04:56:00,
2017-07-20 01:01:00,77.2,77.2,30.06,SW,215,0.0,0.0,0,0.00,,,0.00,meteobridge,2017-07-20 05:01:00,
2017-07-20 01:06:00,77.2,77.2,30.05,SW,215,0.0,0.0,0,0.00,,,0.00,meteobridge,2017-07-20 05:06:00,
2017-07-20 01:11:00,77.2,77.2,30.05,SW,215,0.0,0.0,0,0.00,,,0.00,meteobridge,2017-07-20 05:11:00,
2017-07-20 01:16:00,77.4,77.4,30.05,SW,215,0.0,1.0,0,0.00,,,0.00,meteobridge,2017-07-20 05:16:00,
2017-07-20 01:21:00,77.4,77.4,30.05,SW,215,0.0,0.0,0,0.00,,,0.00,meteobridge,2017-07-20 05:21:00,
2017-07-20 01:26:00,77.2,77.2,30.04,SW,215,0.0,0.0,0,0.00,,,0.00,meteobridge,2017-07-20 05:26:00,
2017-07-20 01:31:00,77.0,77.0,30.04,SW,215,0.0,1.0,0,0.00,,,0.00,meteobridge,2017-07-20 05:31:00,
2017-07-20 01:36:00,76.6,76.6,30.05,SW,215,0.9,2.0,0,0.00,,,0.00,meteobridge,2017-07-20 05:36:00,
2017-07-20 01:41:00,76.5,76.5,30.04,SW,215,0.0,2.0,0,0.00,,,0.00,meteobridge,2017-07-20 05:41:00,
2017-07-20 01:46:00,76.5,76.5,30.04,SW,215,0.0,0.0,0,0.00,,,0.00,meteobridge,2017-07-20 05:46:00,
2017-07-20 01:52:00,76.3,76.3,30.04,SW,215,0.0,1.0,0,0.00,,,0.00,meteobridge,2017-07-20 05:52:00,
2017-07-20 01:57:00,76.1,76.1,30.04,SW,215,0.0,0.0,0,0.00,,,0.00,meteobridge,2017-07-20 05:57:00,
2017-07-20 02:02:00,76.3,76.3,30.04,SW,215,0.0,0.0,0,0.00,,,0.00,meteobridge,2017-07-20 06:02:00,
2017-07-20 02:07:00,76.3,76.3,30.04,SW,216,0.0,0.0,0,0.00,,,0.00,meteobridge,2017-07-20 06:07:00,
2017-07-20 02:12:00,76.5,76.5,30.03,SW,216,0.0,0.0,0,0.00,,,0.00,meteobridge,2017-07-20 06:12:00,
2017-07-20 02:17:00,76.3,76.3,30.03,SW,216,0.0,0.0,0,0.00,,,0.00,meteobridge,2017-07-20 06:17:00,
2017-07-20 02:22:00,75.9,75.9,30.03,SW,216,0.0,0.0,0,0.00,,,0.00,meteobridge,2017-07-20 06:22:00,
2017-07-20 02:27:00,75.7,75.7,30.03,SW,216,0.0,0.0,0,0.00,,,0.00,meteobridge,2017-07-20 06:27:00,
2017-07-20 02:32:00,75.7,75.7,30.03,SW,216,0.0,0.0,0,0.00,,,0.00,meteobridge,2017-07-20 06:32:00,
2017-07-20 02:37:00,75.6,75.6,30.02,SW,216,0.0,0.0,0,0.00,,,0.00,meteobridge,2017-07-20 06:37:00,
2017-07-20 02:40:00,75.6,75.6,30.03,SW,216,0.0,0.0,0,0.00,,,0.00,meteobridge,2017-07-20 06:40:00,
2017-07-20 02:45:00,75.4,75.4,30.02,SW,216,0.0,0.0,0,0.00,,,0.00,meteobridge,2017-07-20 06:45:00,
2017-07-20 02:50:00,75.4,75.4,30.02,SW,216,0.0,0.0,0,0.00,,,0.00,meteobridge,2017-07-20 06:50:00,
2017-07-20 02:55:00,75.4,75.4,30.01,SW,216,0.0,0.0,0,0.00,,,0.00,meteobridge,2017-07-20 06:55:00,
2017-07-20 03:00:00,75.4,75.4,30.02,SW,216,0.0,0.0,0,0.00,,,0.00,meteobridge,2017-07-20 07:00:00,
2017-07-20 03:05:00,75.2,75.2,30.01,SW,215,0.0,0.0,0,0.00,,,0.00,meteobridge,2017-07-20 07:05:00,
2017-07-20 03:10:00,75.0,75.0,30.01,SW,215,0.0,0.0,0,0.00,,,0.00,meteobridge,2017-07-20 07:10:00,
2017-07-20 03:15:00,74.7,74.7,30.00,SW,215,0.0,0.0,0,0.00,,,0.00,meteobridge,2017-07-20 07:15:00,
2017-07-20 03:20:00,74.5,74.5,30.00,SW,215,0.0,0.0,0,0.00,,,0.00,meteobridge,2017-07-20 07:20:00,
2017-07-20 03:25:00,74.5,74.5,29.99,SSW,213,0.0,0.0,0,0.00,,,0.00,meteobridge,2017-07-20 07:25:00,
2017-07-20 03:30:00,74.3,74.3,29.99,SSW,213,0.0,0.0,0,0.00,,,0.00,meteobridge,2017-07-20 07:30:00,
2017-07-20 03:35:00,74.1,74.1,29.99,SSW,213,0.0,0.0,0,0.00,,,0.00,meteobridge,2017-07-20 07:35:00,
2017-07-20 03:40:00,74.1,74.1,29.99,SSW,213,0.0,0.0,0,0.00,,,0.00,meteobridge,2017-07-20 07:40:00,
2017-07-20 03:45:00,74.1,74.1,29.99,SSW,213,0.0,0.0,0,0.00,,,0.00,meteobridge,2017-07-20 07:45:00,
2017-07-20 03:50:00,74.1,74.1,29.99,SSW,213,0.0,0.0,0,0.00,,,0.00,meteobridge,2017-07-20 07:50:00,
2017-07-20 03:55:00,74.3,74.3,29.99,SSW,213,0.0,0.0,0,0.00,,,0.00,meteobridge,2017-07-20 07:55:00,
2017-07-20 03:58:00,74.5,74.5,29.99,SSW,213,0.0,0.0,0,0.00,,,0.00,meteobridge,2017-07-20 07:58:00,
2017-07-20 04:03:00,74.8,74.8,29.99,WSW,248,0.0,1.0,0,0.00,,,0.00,meteobridge,2017-07-20 08:03:00,
2017-07-20 04:08:00,75.4,75.4,29.99,West,275,0.0,1.0,0,0.00,,,0.00,meteobridge,2017-07-20 08:08:00,
2017-07-20 04:14:00,75.6,75.6,30.00,NW,308,2.0,4.0,0,0.00,,,0.00,meteobridge,2017-07-20 08:14:00,
2017-07-20 04:19:00,75.6,75.6,29.99,WSW,255,0.0,5.0,0,0.00,,,0.00,meteobridge,2017-07-20 08:19:00,
2017-07-20 04:24:00,75.6,75.6,29.99,WSW,238,0.0,1.0,0,0.00,,,0.00,meteobridge,2017-07-20 08:24:00,
2017-07-20 04:29:00,75.7,75.7,29.98,WSW,240,0.0,1.0,0,0.00,,,0.00,meteobridge,2017-07-20 08:29:00,
2017-07-20 04:34:00,75.9,75.9,29.98,SW,233,0.0,0.0,0,0.00,,,0.00,meteobridge,2017-07-20 08:34:00,
2017-07-20 04:39:00,75.7,75.7,29.98,SW,217,0.0,2.0,0,0.00,,,0.00,meteobridge,2017-07-20 08:39:00,
2017-07-20 04:44:00,75.6,75.6,29.98,SW,217,0.0,0.0,0,0.00,,,0.00,meteobridge,2017-07-20 08:44:00,
2017-07-20 04:49:00,75.2,75.2,29.98,SSW,207,0.0,4.0,0,0.00,,,0.00,meteobridge,2017-07-20 08:49:00,
2017-07-20 04:54:00,75.0,75.0,29.97,SSW,204,0.0,0.0,0,0.00,,,0.00,meteobridge,2017-07-20 08:54:00,
2017-07-20 04:59:00,74.8,74.8,29.97,SSW,205,0.0,0.0,0,0.00,,,0.00,meteobridge,2017-07-20 08:59:00,
2017-07-20 05:04:00,74.8,74.8,29.96,SSW,205,0.0,0.0,0,0.00,,,0.00,meteobridge,2017-07-20 09:04:00,
2017-07-20 05:09:00,74.8,74.8,29.96,SSW,196,0.0,1.0,0,0.00,,,0.00,meteobridge,2017-07-20 09:09:00,
2017-07-20 05:14:00,74.8,74.8,29.96,SSW,195,0.0,0.0,0,0.00,,,0.00,meteobridge,2017-07-20 09:14:00,
2017-07-20 05:19:00,74.8,74.8,29.95,South,189,0.0,4.0,0,0.00,,,0.00,meteobridge,2017-07-20 09:19:00,
2017-07-20 05:24:00,74.8,74.8,29.95,SSW,211,4.0,6.0,0,0.00,,,0.00,meteobridge,2017-07-20 09:24:00,
2017-07-20 05:29:00,74.8,74.8,29.94,SW,230,0.0,7.0,0,0.00,,,0.00,meteobridge,2017-07-20 09:29:00,
2017-07-20 05:34:00,74.8,74.8,29.95,SSW,203,6.0,6.0,0,0.00,,,0.00,meteobridge,2017-07-20 09:34:00,
2017-07-20 05:39:00,74.8,74.8,29.94,SW,215,4.9,7.0,0,0.00,,,0.00,meteobridge,2017-07-20 09:39:00,
2017-07-20 05:44:00,74.8,74.8,29.95,SW,224,4.0,6.0,0,0.00,,,0.00,meteobridge,2017-07-20 09:44:00,
2017-07-20 05:49:00,74.8,74.8,29.95,SW,232,0.0,5.0,0,0.00,,,0.00,meteobridge,2017-07-20 09:49:00,
2017-07-20 05:54:00,75.0,75.0,29.96,SW,227,0.0,5.0,0,0.00,,,0.00,meteobridge,2017-07-20 09:54:00,
2017-07-20 05:59:00,75.0,75.0,29.96,WSW,237,0.0,1.0,0,0.00,,,0.00,meteobridge,2017-07-20 09:59:00,
2017-07-20 06:04:00,75.0,75.0,29.97,WSW,241,0.0,4.0,0,0.00,,,0.00,meteobridge,2017-07-20 10:04:00,
2017-07-20 06:09:00,75.0,75.0,29.97,SW,222,0.0,4.0,0,0.00,,,0.00,meteobridge,2017-07-20 10:09:00,
2017-07-20 06:14:00,75.2,75.2,29.98,WSW,245,0.9,1.0,0,0.00,,,0.00,meteobridge,2017-07-20 10:14:00,
2017-07-20 06:19:00,75.4,75.4,29.98,WSW,248,0.0,4.0,0,0.00,,,0.00,meteobridge,2017-07-20 10:19:00,
2017-07-20 06:24:00,75.6,75.6,29.98,SW,232,0.0,5.0,0,0.00,,,0.00,meteobridge,2017-07-20 10:24:00,
2017-07-20 06:29:00,75.6,75.6,29.98,SW,221,2.0,4.0,0,0.00,,,0.00,meteobridge,2017-07-20 10:29:00,
2017-07-20 06:34:00,75.6,75.6,29.98,WSW,239,0.0,1.0,0,0.00,,,0.00,meteobridge,2017-07-20 10:34:00,
2017-07-20 06:39:00,75.7,75.7,29.99,SW,230,0.0,1.0,0,0.00,,,0.00,meteobridge,2017-07-20 10:39:00,
2017-07-20 06:44:00,75.7,75.7,29.99,SW,227,0.0,0.0,0,0.00,,,0.00,meteobridge,2017-07-20 10:44:00,
2017-07-20 06:49:00,75.7,75.7,30.00,West,261,0.0,0.0,0,0.00,,,0.00,meteobridge,2017-07-20 10:49:00,
2017-07-20 06:54:00,75.9,75.9,30.00,WSW,258,0.0,0.0,0,0.00,,,0.00,meteobridge,2017-07-20 10:54:00,
2017-07-20 06:59:00,76.3,76.3,30.00,WSW,254,6.0,8.0,0,0.00,,,0.00,meteobridge,2017-07-20 10:59:00,
2017-07-20 07:05:00,76.3,76.3,30.00,WSW,248,0.9,5.0,0,0.00,,,0.00,meteobridge,2017-07-20 11:05:00,
2017-07-20 07:10:00,76.5,76.5,30.00,SW,233,4.0,5.0,0,0.00,,,0.00,meteobridge,2017-07-20 11:10:00,
2017-07-20 07:15:00,76.6,76.6,30.01,SW,221,2.0,3.0,0,0.00,,,0.00,meteobridge,2017-07-20 11:15:00,
2017-07-20 07:20:00,76.5,76.5,30.01,SSW,205,0.9,5.0,0,0.00,,,0.00,meteobridge,2017-07-20 11:20:00,
2017-07-20 07:25:00,76.5,76.5,30.01,SSW,213,0.9,4.0,0,0.00,,,0.00,meteobridge,2017-07-20 11:25:00,
2017-07-20 07:30:00,76.3,76.3,30.01,SSW,213,0.0,4.0,0,0.00,,,0.00,meteobridge,2017-07-20 11:30:00,
2017-07-20 07:35:00,76.3,76.3,30.01,SW,229,0.0,5.0,0,0.00,,,0.00,meteobridge,2017-07-20 11:35:00,
2017-07-20 07:40:00,76.3,76.3,30.01,SSW,211,0.9,4.0,0,0.00,,,0.00,meteobridge,2017-07-20 11:40:00,
2017-07-20 07:45:00,75.9,75.9,30.01,SSW,205,0.0,2.0,0,0.00,,,0.00,meteobridge,2017-07-20 11:45:00,
2017-07-20 07:50:00,75.9,75.9,30.01,SSW,205,4.0,4.0,0,0.00,,,0.00,meteobridge,2017-07-20 11:50:00,
2017-07-20 07:55:00,75.7,75.7,30.01,SSW,203,0.9,4.0,0,0.00,,,0.00,meteobridge,2017-07-20 11:55:00,
2017-07-20 08:00:00,75.7,75.7,30.02,SSW,213,0.9,4.0,0,0.00,,,0.00,meteobridge,2017-07-20 12:00:00,
2017-07-20 08:05:00,75.7,75.7,30.02,SW,227,2.0,5.0,0,0.00,,,0.00,meteobridge,2017-07-20 12:05:00,
2017-07-20 08:10:00,75.7,75.7,30.01,SW,219,4.0,6.0,0,0.00,,,0.00,meteobridge,2017-07-20 12:10:00,
2017-07-20 08:15:00,75.7,75.7,30.02,SW,220,4.0,6.0,0,0.00,,,0.00,meteobridge,2017-07-20 12:15:00,
2017-07-20 08:20:00,75.7,75.7,30.02,SW,218,4.0,7.0,0,0.00,,,0.00,meteobridge,2017-07-20 12:20:00,
2017-07-20 08:25:00,75.7,75.7,30.02,SW,223,6.0,7.0,0,0.00,,,0.00,meteobridge,2017-07-20 12:25:00,
2017-07-20 08:30:00,75.9,75.9,30.02,SW,215,4.0,7.0,0,0.00,,,0.00,meteobridge,2017-07-20 12:30:00,
2017-07-20 08:35:00,75.9,75.9,30.02,SSW,211,4.9,6.0,0,0.00,,,0.00,meteobridge,2017-07-20 12:35:00,
2017-07-20 08:39:00,75.9,75.9,30.02,SSW,209,0.0,2.0,0,0.00,,,0.00,meteobridge,2017-07-20 12:39:00,
2017-07-20 08:44:00,75.9,75.9,30.02,SSW,208,0.0,0.0,0,0.00,,,0.00,meteobridge,2017-07-20 12:44:00,
2017-07-20 08:49:00,76.1,76.1,30.02,SSW,208,0.0,1.0,0,0.00,,,0.00,meteobridge,2017-07-20 12:49:00,
2017-07-20 08:54:00,76.1,76.1,30.03,SSW,208,0.0,1.0,0,0.00,,,0.00,meteobridge,2017-07-20 12:54:00,
2017-07-20 08:59:00,76.3,76.3,30.03,SSW,208,0.0,1.0,0,0.00,,,0.00,meteobridge,2017-07-20 12:59:00,
2017-07-20 09:04:00,76.5,76.5,30.03,SSW,208,0.0,0.0,0,0.00,,,0.00,meteobridge,2017-07-20 13:04:00,
2017-07-20 09:09:00,76.6,76.6,30.03,SSW,208,0.0,1.0,0,0.00,,,0.00,meteobridge,2017-07-20 13:09:00,
2017-07-20 09:14:00,76.6,76.6,30.03,SSW,208,0.0,1.0,0,0.00,,,0.00,meteobridge,2017-07-20 13:14:00,
2017-07-20 09:19:00,77.0,77.0,30.04,SSW,208,0.0,1.0,0,0.00,,,0.00,meteobridge,2017-07-20 13:19:00,
2017-07-20 09:24:00,77.2,77.2,30.04,SSW,203,0.0,1.0,0,0.00,,,0.00,meteobridge,2017-07-20 13:24:00,
2017-07-20 09:29:00,77.5,77.5,30.04,SSW,192,0.9,1.0,0,0.00,,,0.00,meteobridge,2017-07-20 13:29:00,
2017-07-20 09:34:00,77.7,77.7,30.04,SSW,192,0.9,1.0,0,0.00,,,0.00,meteobridge,2017-07-20 13:34:00,
2017-07-20 09:39:00,78.1,78.1,30.04,SSW,192,0.0,1.0,0,0.00,,,0.00,meteobridge,2017-07-20 13:39:00,
2017-07-20 09:44:00,78.4,78.4,30.04,SSW,194,0.0,2.0,0,0.00,,,0.00,meteobridge,2017-07-20 13:44:00,